Regional Weather Roundup
Issued by NWS

Home | Current Version | Previous Version | Graphics & Text | Print | Product List | Glossary On
Versions: 1 2 3 4 5 6 7 8 9 10 11 12 13 14 15 16 17 18 19 20 21 22 23 24 25 26 27 28 29 30 31 32 33 34 35 36 37 38 39 40 41 42 43 44 45 46 47 48 49 50
000
ASUS43 KTOP 310710
RWRKS

STATE WEATHER ROUNDUP
NATIONAL WEATHER SERVICE DODGE CITY KS
 FOR NATIONAL WEATHER SERVICE GOODLAND KS
200 AM CDT FRI JUL 31 2015

NOTE:  "FAIR" INDICATES FEW OR NO CLOUDS BELOW 12,000 FEET WITH NO
SIGNIFICANT WEATHER AND/OR OBSTRUCTIONS TO VISIBILITY.

KSZ001>006-013>018-027>032-041>047-310800-
...NORTHWEST KANSAS...

CITY           SKY/WX    TMP DP  RH WIND       PRES   REMARKS
GOODLAND       PTCLDY    63  62  97 CALM      30.26R
HAYS           PTCLDY    70  61  73 S7        30.21R
HILL CITY      PTCLDY    72  68  87 S6        30.20S
RUSSELL        PTCLDY    69  67  93 S7        30.19R
$$

KSZ061>065-074>080-084>089-310800-
...SOUTHWEST KANSAS...

CITY           SKY/WX    TMP DP  RH WIND       PRES   REMARKS
DODGE CITY     PTCLDY    69  67  93 S5        30.23F
ELKHART          N/A     70  65  84 SE7         N/A
GARDEN CITY    PTCLDY    69  67  93 S8        30.23F
GREAT BEND     CLEAR     70  66  88 S6        30.20R
LIBERAL        CLOUDY    73  66  78 SE7       30.24S
PRATT          CLEAR     70  68  94 SW3       30.21S
$$

KSZ066>073-081>083-090>101-310800-
...SOUTHEAST KANSAS...

CITY           SKY/WX    TMP DP  RH WIND       PRES   REMARKS
CHANUTE        PTCLDY    66  64  93 E3        30.15F
COFFEYVILLE    MOCLDY    76  71  85 CALM      30.13F
HUTCHINSON     CLEAR     70  67  90 CALM      30.18S
MEDICINE LODGE   N/A     73  71  93 CALM      30.17S
NEWTON         CLEAR     70  63  78 SE5       30.20S
PARSONS        MOCLDY    72  68  87 CALM      30.15S
WICHITA INTL   PTCLDY    74  65  73 CALM      30.16S
WICHITA JABRA  CLEAR     69  67  93 CALM      30.17S
WICHITA MCCONL CLEAR     74  64  72 E3        30.17S
WINFIELD       CLEAR     72  69  90 NE3       30.17S
$$

KSZ007>012-019>026-033>040-048>060-102>105-310800-
...NORTHEAST KANSAS...

CITY           SKY/WX    TMP DP  RH WIND       PRES   REMARKS
CONCORDIA      MOCLDY    72  66  81 S9        30.17S
EMPORIA        CLEAR     67  65  93 CALM      30.17S
LAWRENCE       CLEAR     62  60  93 N3        30.17S
MANHATTAN      PTCLDY    66  65  96 CALM      30.17R
OLATHE IND     CLEAR     66  61  84 S3        30.18S
OLATHE EXE     CLEAR     65  63  93 CALM      30.17S
SALINA         PTCLDY    73  67  81 SW7       30.17S
TOPEKA BILLARD CLEAR     67  66  97 CALM      30.17S
TOPEKA FORBES  CLEAR     66  62  87 CALM      30.17S
$$


USA.gov is the U.S. government's official web portal to all federal, state and local government web resources and services.